Time,TemperatureF,DewpointF,PressureIn,WindDirection,WindDirectionDegrees,WindSpeedMPH,WindSpeedGustMPH,Humidity,HourlyPrecipIn,Conditions,Clouds,dailyrainin,SoftwareType,DateUTC
2013-01-28 00:01:00,3.7,-0.3,30.44,ESE,106,0.0,0.0,83,0.00,,,0.00,Wunderground v.1.15,2013-01-28 05:01:00,
2013-01-28 00:04:00,3.8,-0.2,30.43,ESE,106,0.0,0.0,83,0.00,,,0.00,Wunderground v.1.15,2013-01-28 05:04:00,
2013-01-28 00:05:00,3.9,-0.1,30.43,ESE,106,0.0,0.0,83,0.00,,,0.00,Wunderground v.1.15,2013-01-28 05:05:00,
2013-01-28 00:10:00,3.9,-0.1,30.43,ESE,106,0.0,0.0,83,0.00,,,0.00,Wunderground v.1.15,2013-01-28 05:10:00,
2013-01-28 00:16:00,3.8,-0.2,30.43,ESE,106,0.0,0.0,83,0.00,,,0.00,Wunderground v.1.15,2013-01-28 05:16:00,
2013-01-28 00:21:00,4.0,0.0,30.44,ESE,106,0.0,0.0,83,0.00,,,0.00,Wunderground v.1.15,2013-01-28 05:21:00,
2013-01-28 00:27:00,4.2,0.2,30.44,ESE,106,0.0,0.0,83,0.00,,,0.00,Wunderground v.1.15,2013-01-28 05:27:00,
2013-01-28 00:32:00,4.1,-0.2,30.44,ESE,106,0.0,0.0,82,0.00,,,0.00,Wunderground v.1.15,2013-01-28 05:32:00,
2013-01-28 00:37:00,4.2,-0.1,30.44,East,96,0.0,2.0,82,0.00,,,0.00,Wunderground v.1.15,2013-01-28 05:37:00,
2013-01-28 00:42:00,4.3,0.0,30.44,East,96,0.0,0.0,82,0.00,,,0.00,Wunderground v.1.15,2013-01-28 05:42:00,
2013-01-28 00:47:00,4.4,0.4,30.44,East,96,0.0,0.0,83,0.00,,,0.00,Wunderground v.1.15,2013-01-28 05:47:00,
2013-01-28 00:52:00,4.7,0.4,30.44,East,96,0.0,0.0,82,0.00,,,0.00,Wunderground v.1.15,2013-01-28 05:52:00,
2013-01-28 00:58:00,5.0,0.7,30.45,East,96,0.0,0.0,82,0.00,,,0.00,Wunderground v.1.15,2013-01-28 05:58:00,
2013-01-28 01:03:00,5.3,1.0,30.44,East,96,0.0,0.0,82,0.00,,,0.00,Wunderground v.1.15,2013-01-28 06:03:00,
2013-01-28 01:09:00,5.5,0.9,30.45,East,96,0.0,0.0,81,0.00,,,0.00,Wunderground v.1.15,2013-01-28 06:09:00,
2013-01-28 01:14:00,5.5,0.9,30.45,East,96,0.0,0.0,81,0.00,,,0.00,Wunderground v.1.15,2013-01-28 06:14:00,
2013-01-28 01:19:00,5.7,1.4,30.45,East,96,0.0,0.0,82,0.00,,,0.00,Wunderground v.1.15,2013-01-28 06:19:00,
2013-01-28 01:24:00,5.9,1.6,30.45,East,96,0.0,0.0,82,0.00,,,0.00,Wunderground v.1.15,2013-01-28 06:24:00,
2013-01-28 01:30:00,6.2,2.1,30.45,East,96,0.0,0.0,83,0.00,,,0.00,Wunderground v.1.15,2013-01-28 06:30:00,
2013-01-28 01:35:00,6.5,2.4,30.45,East,96,0.0,0.0,83,0.00,,,0.00,Wunderground v.1.15,2013-01-28 06:35:00,
2013-01-28 01:41:00,6.8,2.5,30.44,East,96,0.0,0.0,82,0.00,,,0.00,Wunderground v.1.15,2013-01-28 06:41:00,
2013-01-28 01:46:00,7.0,2.9,30.44,East,96,0.0,0.0,83,0.00,,,0.00,Wunderground v.1.15,2013-01-28 06:46:00,
2013-01-28 01:52:00,7.4,2.8,30.44,East,96,0.0,0.0,81,0.00,,,0.00,Wunderground v.1.15,2013-01-28 06:52:00,
2013-01-28 01:57:00,7.6,3.0,30.44,East,96,0.0,0.0,81,0.00,,,0.00,Wunderground v.1.15,2013-01-28 06:57:00,
2013-01-28 02:02:00,7.8,3.4,30.44,East,96,0.0,0.0,82,0.00,,,0.00,Wunderground v.1.15,2013-01-28 07:02:00,
2013-01-28 02:07:00,8.0,3.6,30.43,East,96,0.0,0.0,82,0.00,,,0.00,Wunderground v.1.15,2013-01-28 07:07:00,
2013-01-28 02:12:00,7.9,3.8,30.43,East,96,0.0,0.0,83,0.00,,,0.00,Wunderground v.1.15,2013-01-28 07:12:00,
2013-01-28 02:17:00,8.1,3.2,30.43,East,96,0.0,0.0,80,0.00,,,0.00,Wunderground v.1.15,2013-01-28 07:17:00,
2013-01-28 02:22:00,8.1,2.9,30.43,East,96,0.0,0.0,79,0.00,,,0.00,Wunderground v.1.15,2013-01-28 07:22:00,
2013-01-28 02:27:00,8.1,2.9,30.43,East,96,0.0,0.0,79,0.00,,,0.00,Wunderground v.1.15,2013-01-28 07:27:00,
2013-01-28 02:32:00,8.0,2.6,30.43,East,96,0.0,0.0,78,0.00,,,0.00,Wunderground v.1.15,2013-01-28 07:32:00,
2013-01-28 02:37:00,8.0,2.3,30.43,East,96,0.0,0.0,77,0.00,,,0.00,Wunderground v.1.15,2013-01-28 07:37:00,
2013-01-28 02:42:00,8.1,2.7,30.42,East,96,0.0,0.0,78,0.00,,,0.00,Wunderground v.1.15,2013-01-28 07:42:00,
2013-01-28 02:47:00,8.1,2.9,30.43,East,96,0.0,0.0,79,0.00,,,0.00,Wunderground v.1.15,2013-01-28 07:47:00,
2013-01-28 02:52:00,7.9,3.0,30.43,East,96,0.0,0.0,80,0.00,,,0.00,Wunderground v.1.15,2013-01-28 07:52:00,
2013-01-28 02:57:00,7.8,2.9,30.43,East,96,0.0,0.0,80,0.00,,,0.00,Wunderground v.1.15,2013-01-28 07:57:00,
2013-01-28 03:02:00,7.9,3.3,30.43,East,96,0.0,0.0,81,0.00,,,0.00,Wunderground v.1.15,2013-01-28 08:02:00,
2013-01-28 03:07:00,7.7,3.1,30.42,East,96,0.0,0.0,81,0.00,,,0.00,Wunderground v.1.15,2013-01-28 08:07:00,
2013-01-28 03:12:00,7.7,2.8,30.43,ESE,105,0.0,0.0,80,0.00,,,0.00,Wunderground v.1.15,2013-01-28 08:12:00,
2013-01-28 03:17:00,7.8,2.9,30.42,ESE,103,0.0,2.0,80,0.00,,,0.00,Wunderground v.1.15,2013-01-28 08:17:00,
2013-01-28 03:22:00,7.9,3.0,30.42,ESE,103,1.0,1.0,80,0.00,,,0.00,Wunderground v.1.15,2013-01-28 08:22:00,
2013-01-28 03:27:00,8.0,3.1,30.42,ESE,103,0.0,1.0,80,0.00,,,0.00,Wunderground v.1.15,2013-01-28 08:27:00,
2013-01-28 03:32:00,7.9,3.3,30.42,ESE,103,0.0,0.0,81,0.00,,,0.00,Wunderground v.1.15,2013-01-28 08:32:00,
2013-01-28 03:37:00,7.7,3.1,30.42,ESE,103,0.0,0.0,81,0.00,,,0.00,Wunderground v.1.15,2013-01-28 08:37:00,
2013-01-28 03:42:00,7.5,2.9,30.41,ESE,103,0.0,0.0,81,0.00,,,0.00,Wunderground v.1.15,2013-01-28 08:42:00,
2013-01-28 03:47:00,7.2,2.3,30.41,ESE,103,0.0,1.0,80,0.00,,,0.00,Wunderground v.1.15,2013-01-28 08:47:00,
2013-01-28 03:52:00,7.1,2.0,30.41,ESE,103,0.0,0.0,79,0.00,,,0.00,Wunderground v.1.15,2013-01-28 08:52:00,
2013-01-28 03:57:00,7.0,1.9,30.41,ESE,103,0.0,0.0,79,0.00,,,0.00,Wunderground v.1.15,2013-01-28 08:57:00,
2013-01-28 04:02:00,6.9,1.8,30.41,ESE,103,0.0,0.0,79,0.00,,,0.00,Wunderground v.1.15,2013-01-28 09:02:00,
2013-01-28 04:07:00,6.7,1.6,30.41,ESE,103,0.0,0.0,79,0.00,,,0.00,Wunderground v.1.15,2013-01-28 09:07:00,
2013-01-28 04:12:00,6.5,1.4,30.40,ESE,103,0.0,0.0,79,0.00,,,0.00,Wunderground v.1.15,2013-01-28 09:12:00,
2013-01-28 04:17:00,6.2,1.4,30.40,ESE,103,0.0,0.0,80,0.00,,,0.00,Wunderground v.1.15,2013-01-28 09:17:00,
2013-01-28 04:22:00,6.0,1.2,30.40,ESE,103,0.0,0.0,80,0.00,,,0.00,Wunderground v.1.15,2013-01-28 09:22:00,
2013-01-28 04:27:00,5.8,1.2,30.40,ESE,103,0.0,0.0,81,0.00,,,0.00,Wunderground v.1.15,2013-01-28 09:27:00,
2013-01-28 04:32:00,5.8,1.0,30.40,East,96,1.0,2.0,80,0.00,,,0.00,Wunderground v.1.15,2013-01-28 09:32:00,
2013-01-28 04:37:00,5.8,1.0,30.40,East,98,1.0,2.0,80,0.00,,,0.00,Wunderground v.1.15,2013-01-28 09:37:00,
2013-01-28 04:42:00,6.0,0.9,30.40,East,100,0.0,1.0,79,0.00,,,0.00,Wunderground v.1.15,2013-01-28 09:42:00,
2013-01-28 04:47:00,5.9,0.8,30.40,East,98,0.0,1.0,79,0.00,,,0.00,Wunderground v.1.15,2013-01-28 09:47:00,
2013-01-28 04:52:00,5.8,1.0,30.40,East,99,1.0,1.0,80,0.00,,,0.00,Wunderground v.1.15,2013-01-28 09:52:00,
2013-01-28 04:57:00,5.8,1.0,30.40,East,98,1.0,1.0,80,0.00,,,0.00,Wunderground v.1.15,2013-01-28 09:57:00,
2013-01-28 05:02:00,5.8,1.0,30.39,East,99,0.0,1.0,80,0.00,,,0.00,Wunderground v.1.15,2013-01-28 10:02:00,
2013-01-28 05:07:00,5.6,1.0,30.39,East,99,0.0,1.0,81,0.00,,,0.00,Wunderground v.1.15,2013-01-28 10:07:00,
2013-01-28 05:12:00,5.7,1.1,30.38,East,99,0.0,1.0,81,0.00,,,0.00,Wunderground v.1.15,2013-01-28 10:12:00,
2013-01-28 05:17:00,6.1,1.3,30.39,East,99,0.0,1.0,80,0.00,,,0.00,Wunderground v.1.15,2013-01-28 10:17:00,
2013-01-28 05:22:00,6.6,1.2,30.39,East,99,0.0,0.0,78,0.00,,,0.00,Wunderground v.1.15,2013-01-28 10:22:00,
2013-01-28 05:27:00,6.8,1.7,30.38,East,98,0.0,0.0,79,0.00,,,0.00,Wunderground v.1.15,2013-01-28 10:27:00,
2013-01-28 05:32:00,6.7,1.6,30.39,East,98,1.0,1.0,79,0.00,,,0.00,Wunderground v.1.15,2013-01-28 10:32:00,
2013-01-28 05:37:00,6.7,1.6,30.39,East,100,0.0,1.0,79,0.00,,,0.00,Wunderground v.1.15,2013-01-28 10:37:00,
2013-01-28 05:42:00,6.7,1.8,30.38,ESE,107,0.0,1.0,80,0.00,,,0.00,Wunderground v.1.15,2013-01-28 10:42:00,
2013-01-28 05:47:00,6.9,2.0,30.38,ESE,106,0.0,1.0,80,0.00,,,0.00,Wunderground v.1.15,2013-01-28 10:47:00,
2013-01-28 05:52:00,7.0,2.1,30.38,ESE,106,0.0,0.0,80,0.00,,,0.00,Wunderground v.1.15,2013-01-28 10:52:00,
2013-01-28 05:57:00,7.0,2.1,30.37,ESE,105,0.0,0.0,80,0.00,,,0.00,Wunderground v.1.15,2013-01-28 10:57:00,
2013-01-28 06:02:00,7.3,2.7,30.37,ESE,105,1.0,1.0,81,0.00,,,0.00,Wunderground v.1.15,2013-01-28 11:02:00,
2013-01-28 06:07:00,7.8,3.2,30.37,ESE,105,0.0,1.0,81,0.00,,,0.00,Wunderground v.1.15,2013-01-28 11:07:00,
2013-01-28 06:12:00,7.9,3.3,30.37,ESE,105,0.0,0.0,81,0.00,,,0.00,Wunderground v.1.15,2013-01-28 11:12:00,
2013-01-28 06:17:00,8.2,3.3,30.37,ESE,105,0.0,0.0,80,0.00,,,0.00,Wunderground v.1.15,2013-01-28 11:17:00,
2013-01-28 06:23:00,8.5,3.6,30.36,ESE,106,0.0,0.0,80,0.00,,,0.00,Wunderground v.1.15,2013-01-28 11:23:00,
2013-01-28 06:28:00,8.7,3.8,30.36,ESE,105,0.0,0.0,80,0.00,,,0.00,Wunderground v.1.15,2013-01-28 11:28:00,
2013-01-28 06:33:00,8.8,3.9,30.37,ESE,105,0.0,0.0,80,0.00,,,0.00,Wunderground v.1.15,2013-01-28 11:33:00,
2013-01-28 06:38:00,9.2,4.6,30.37,ESE,105,0.0,0.0,81,0.00,,,0.00,Wunderground v.1.15,2013-01-28 11:38:00,
2013-01-28 06:43:00,9.5,4.6,30.37,ESE,105,0.0,0.0,80,0.00,,,0.00,Wunderground v.1.15,2013-01-28 11:43:00,
2013-01-28 06:48:00,9.8,5.1,30.37,ESE,105,0.0,0.0,81,0.00,,,0.00,Wunderground v.1.15,2013-01-28 11:48:00,
2013-01-28 06:53:00,9.8,5.1,30.37,ESE,106,0.0,0.0,81,0.00,,,0.00,Wunderground v.1.15,2013-01-28 11:53:00,
2013-01-28 06:58:00,9.8,5.1,30.37,ESE,106,0.0,0.0,81,0.00,,,0.00,Wunderground v.1.15,2013-01-28 11:58:00,
2013-01-28 07:03:00,10.0,5.3,30.37,ESE,105,0.0,0.0,81,0.00,,,0.00,Wunderground v.1.15,2013-01-28 12:03:00,
2013-01-28 07:08:00,10.2,5.3,30.37,ESE,105,0.0,0.0,80,0.00,,,0.00,Wunderground v.1.15,2013-01-28 12:08:00,
2013-01-28 07:13:00,10.3,5.1,30.36,ESE,105,0.0,0.0,79,0.00,,,0.00,Wunderground v.1.15,2013-01-28 12:13:00,
2013-01-28 07:18:00,10.6,5.6,30.36,ESE,105,0.0,0.0,80,0.00,,,0.00,Wunderground v.1.15,2013-01-28 12:18:00,
2013-01-28 07:23:00,10.8,6.1,30.36,ESE,105,0.0,1.0,81,0.00,,,0.00,Wunderground v.1.15,2013-01-28 12:23:00,
2013-01-28 07:28:00,11.0,6.0,30.36,ESE,105,0.0,1.0,80,0.00,,,0.00,Wunderground v.1.15,2013-01-28 12:28:00,
2013-01-28 07:33:00,11.2,6.2,30.36,ESE,105,0.0,0.0,80,0.00,,,0.00,Wunderground v.1.15,2013-01-28 12:33:00,
2013-01-28 07:38:00,11.5,6.8,30.36,ESE,106,0.0,0.0,81,0.00,,,0.00,Wunderground v.1.15,2013-01-28 12:38:00,
2013-01-28 07:44:00,11.8,6.5,30.35,ESE,106,0.0,1.0,79,0.00,,,0.00,Wunderground v.1.15,2013-01-28 12:44:00,
2013-01-28 07:49:00,12.1,6.8,30.35,ESE,105,0.0,0.0,79,0.00,,,0.00,Wunderground v.1.15,2013-01-28 12:49:00,
2013-01-28 07:54:00,12.5,7.2,30.35,ESE,105,0.0,0.0,79,0.00,,,0.00,Wunderground v.1.15,2013-01-28 12:54:00,
2013-01-28 07:59:00,12.9,6.2,30.35,ESE,106,0.0,0.0,74,0.00,,,0.00,Wunderground v.1.15,2013-01-28 12:59:00,
2013-01-28 08:04:00,13.3,5.3,30.36,ESE,107,0.0,0.0,70,0.00,,,0.00,Wunderground v.1.15,2013-01-28 13:04:00,
2013-01-28 08:09:00,13.7,6.0,30.36,ESE,108,0.0,0.0,71,0.00,,,0.00,Wunderground v.1.15,2013-01-28 13:09:00,
2013-01-28 08:14:00,14.4,6.1,30.36,ESE,107,0.0,0.0,69,0.00,,,0.00,Wunderground v.1.15,2013-01-28 13:14:00,
2013-01-28 08:19:00,15.1,6.4,30.36,ESE,108,0.0,0.0,68,0.00,,,0.00,Wunderground v.1.15,2013-01-28 13:19:00,
2013-01-28 08:24:00,15.4,6.4,30.35,ESE,108,0.0,0.0,67,0.00,,,0.00,Wunderground v.1.15,2013-01-28 13:24:00,
2013-01-28 08:29:00,15.7,6.7,30.36,ESE,107,0.0,0.0,67,0.00,,,0.00,Wunderground v.1.15,2013-01-28 13:29:00,
2013-01-28 08:34:00,15.6,7.6,30.36,ESE,108,0.0,0.0,70,0.00,,,0.00,Wunderground v.1.15,2013-01-28 13:34:00,
2013-01-28 08:39:00,15.8,8.1,30.35,ESE,108,0.0,0.0,71,0.00,,,0.00,Wunderground v.1.15,2013-01-28 13:39:00,
2013-01-28 08:44:00,15.8,7.1,30.36,ESE,108,0.0,0.0,68,0.00,,,0.00,Wunderground v.1.15,2013-01-28 13:44:00,
2013-01-28 08:49:00,16.2,6.5,30.35,ESE,107,0.0,0.0,65,0.00,,,0.00,Wunderground v.1.15,2013-01-28 13:49:00,
2013-01-28 08:54:00,16.6,5.8,30.34,ESE,108,0.0,0.0,62,0.00,,,0.00,Wunderground v.1.15,2013-01-28 13:54:00,
2013-01-28 08:59:00,17.1,7.0,30.35,South,184,0.0,0.0,64,0.00,,,0.00,Wunderground v.1.15,2013-01-28 13:59:00,
2013-01-28 09:04:00,16.9,5.4,30.35,WSW,247,2.0,3.0,60,0.00,,,0.00,Wunderground v.1.15,2013-01-28 14:04:00,
2013-01-28 09:09:00,17.0,4.7,30.35,SE,142,2.0,3.0,58,0.00,,,0.00,Wunderground v.1.15,2013-01-28 14:09:00,
2013-01-28 09:14:00,16.9,4.3,30.35,SE,146,0.0,4.0,57,0.00,,,0.00,Wunderground v.1.15,2013-01-28 14:14:00,
2013-01-28 09:19:00,17.1,4.8,30.34,South,176,0.0,1.0,58,0.00,,,0.00,Wunderground v.1.15,2013-01-28 14:19:00,
2013-01-28 09:25:00,17.2,4.2,30.34,SE,125,0.0,1.0,56,0.00,,,0.00,Wunderground v.1.15,2013-01-28 14:25:00,
2013-01-28 09:30:00,17.3,4.3,30.34,East,83,0.0,1.0,56,0.00,,,0.00,Wunderground v.1.15,2013-01-28 14:30:00,
2013-01-28 09:35:00,17.5,4.5,30.33,East,91,0.0,1.0,56,0.00,,,0.00,Wunderground v.1.15,2013-01-28 14:35:00,
2013-01-28 09:40:00,17.8,4.7,30.33,East,91,0.0,0.0,56,0.00,,,0.00,Wunderground v.1.15,2013-01-28 14:40:00,
2013-01-28 09:45:00,18.1,6.2,30.33,SE,135,0.0,0.0,59,0.00,,,0.00,Wunderground v.1.15,2013-01-28 14:45:00,
2013-01-28 09:50:00,18.2,6.3,30.32,ESE,102,0.0,0.0,59,0.00,,,0.00,Wunderground v.1.15,2013-01-28 14:50:00,
2013-01-28 09:55:00,18.2,7.3,30.32,SSE,148,2.0,3.0,62,0.00,,,0.00,Wunderground v.1.15,2013-01-28 14:55:00,
2013-01-28 10:00:00,18.0,8.9,30.31,SE,139,3.0,5.0,67,0.00,,,0.00,Wunderground v.1.15,2013-01-28 15:00:00,
2013-01-28 10:05:00,17.7,9.9,30.32,ENE,63,2.0,6.0,71,0.00,,,0.00,Wunderground v.1.15,2013-01-28 15:05:00,
2013-01-28 10:10:00,17.7,10.8,30.32,East,91,2.0,3.0,74,0.00,,,0.00,Wunderground v.1.15,2013-01-28 15:10:00,
2013-01-28 10:15:00,17.7,11.1,30.32,SSW,194,2.0,3.0,75,0.00,,,0.00,Wunderground v.1.15,2013-01-28 15:15:00,
2013-01-28 10:20:00,17.4,11.1,30.32,SSE,159,1.0,4.0,76,0.00,,,0.00,Wunderground v.1.15,2013-01-28 15:20:00,
2013-01-28 10:25:00,17.1,11.1,30.32,SW,218,3.0,7.0,77,0.00,,,0.00,Wunderground v.1.15,2013-01-28 15:25:00,
2013-01-28 10:30:00,16.8,11.1,30.32,South,176,6.0,7.0,78,0.00,,,0.00,Wunderground v.1.15,2013-01-28 15:30:00,
2013-01-28 10:35:00,16.5,11.4,30.31,East,100,3.0,8.0,80,0.00,,,0.00,Wunderground v.1.15,2013-01-28 15:35:00,
2013-01-28 10:40:00,16.7,12.4,30.30,SE,124,2.0,5.0,83,0.00,,,0.00,Wunderground v.1.15,2013-01-28 15:40:00,
2013-01-28 10:45:00,17.2,13.2,30.30,East,98,1.0,5.0,84,0.00,,,0.00,Wunderground v.1.15,2013-01-28 15:45:00,
2013-01-28 10:50:00,17.6,13.6,30.29,SE,140,0.0,2.0,84,0.00,,,0.00,Wunderground v.1.15,2013-01-28 15:50:00,
2013-01-28 10:55:00,18.0,14.3,30.29,ESE,104,0.0,2.0,85,0.00,,,0.00,Wunderground v.1.15,2013-01-28 15:55:00,
2013-01-28 11:00:00,18.4,14.6,30.28,ESE,105,0.0,0.0,85,0.00,,,0.00,Wunderground v.1.15,2013-01-28 16:00:00,
2013-01-28 11:05:00,18.8,15.0,30.27,ESE,105,0.0,0.0,85,0.00,,,0.00,Wunderground v.1.15,2013-01-28 16:05:00,
2013-01-28 11:10:00,19.0,15.2,30.26,SSW,204,2.0,3.0,85,0.00,,,0.00,Wunderground v.1.15,2013-01-28 16:10:00,
2013-01-28 11:15:00,18.9,15.1,30.26,SW,235,0.0,3.0,85,0.00,,,0.00,Wunderground v.1.15,2013-01-28 16:15:00,
2013-01-28 11:20:00,18.8,15.0,30.26,West,266,0.0,1.0,85,0.00,,,0.00,Wunderground v.1.15,2013-01-28 16:20:00,
2013-01-28 11:25:00,18.7,14.9,30.27,NW,315,1.0,3.0,85,0.00,,,0.00,Wunderground v.1.15,2013-01-28 16:25:00,
2013-01-28 11:30:00,18.5,14.5,30.27,WSW,256,2.0,3.0,84,0.00,,,0.00,Wunderground v.1.15,2013-01-28 16:30:00,
2013-01-28 11:35:00,18.2,14.4,30.27,SSW,209,1.0,3.0,85,0.00,,,0.00,Wunderground v.1.15,2013-01-28 16:35:00,
2013-01-28 11:41:00,18.0,14.3,30.27,SSW,208,2.0,5.0,85,0.00,,,0.00,Wunderground v.1.15,2013-01-28 16:41:00,
2013-01-28 11:46:00,17.9,14.2,30.26,ESE,103,3.0,6.0,85,0.00,,,0.00,Wunderground v.1.15,2013-01-28 16:46:00,
2013-01-28 11:51:00,17.9,14.4,30.26,ESE,111,4.0,6.0,86,0.00,,,0.00,Wunderground v.1.15,2013-01-28 16:51:00,
2013-01-28 11:56:00,17.9,14.7,30.25,SSE,148,5.0,8.0,87,0.00,,,0.00,Wunderground v.1.15,2013-01-28 16:56:00,
2013-01-28 12:01:00,17.9,14.7,30.24,East,88,3.0,5.0,87,0.00,,,0.00,Wunderground v.1.15,2013-01-28 17:01:00,
2013-01-28 12:06:00,18.0,15.0,30.23,ESE,122,1.0,5.0,88,0.00,,,0.00,Wunderground v.1.15,2013-01-28 17:06:00,
2013-01-28 12:11:00,18.1,15.1,30.22,SE,137,2.0,3.0,88,0.00,,,0.00,Wunderground v.1.15,2013-01-28 17:11:00,
2013-01-28 12:16:00,18.4,15.7,30.21,SSE,150,0.0,4.0,89,0.00,,,0.00,Wunderground v.1.15,2013-01-28 17:16:00,
2013-01-28 12:21:00,18.7,16.0,30.20,South,169,2.0,3.0,89,0.00,,,0.00,Wunderground v.1.15,2013-01-28 17:21:00,
2013-01-28 12:26:00,19.2,16.5,30.19,SSE,159,2.0,4.0,89,0.00,,,0.00,Wunderground v.1.15,2013-01-28 17:26:00,
2013-01-28 12:31:00,19.5,16.5,30.18,SW,224,1.0,5.0,88,0.00,,,0.00,Wunderground v.1.15,2013-01-28 17:31:00,
2013-01-28 12:36:00,20.0,17.0,30.17,SE,145,7.0,7.0,88,0.00,,,0.00,Wunderground v.1.15,2013-01-28 17:36:00,
2013-01-28 12:41:00,20.4,17.4,30.17,SE,142,3.0,10.0,88,0.00,,,0.00,Wunderground v.1.15,2013-01-28 17:41:00,
2013-01-28 12:46:00,20.5,17.2,30.17,SE,138,4.0,12.0,87,0.00,,,0.00,Wunderground v.1.15,2013-01-28 17:46:00,
2013-01-28 12:51:00,20.6,17.1,30.17,SE,125,3.0,5.0,86,0.00,,,0.00,Wunderground v.1.15,2013-01-28 17:51:00,
2013-01-28 12:56:00,20.3,16.5,30.17,ESE,121,8.0,8.0,85,0.00,,,0.00,Wunderground v.1.15,2013-01-28 17:56:00,
2013-01-28 13:01:00,19.6,15.6,30.17,ESE,119,6.0,6.0,84,0.00,,,0.00,Wunderground v.1.15,2013-01-28 18:01:00,
2013-01-28 13:06:00,19.1,15.1,30.15,East,86,4.0,11.0,84,0.00,,,0.00,Wunderground v.1.15,2013-01-28 18:06:00,
2013-01-28 13:11:00,19.0,15.2,30.14,ESE,123,5.0,11.0,85,0.00,,,0.00,Wunderground v.1.15,2013-01-28 18:11:00,
2013-01-28 13:16:00,18.9,15.1,30.14,SSE,148,4.0,11.0,85,0.00,,,0.00,Wunderground v.1.15,2013-01-28 18:16:00,
2013-01-28 13:21:00,19.0,15.2,30.13,SSE,152,1.0,6.0,85,0.00,,,0.00,Wunderground v.1.15,2013-01-28 18:21:00,
2013-01-28 13:26:00,19.1,15.3,30.13,East,100,8.0,8.0,85,0.00,,,0.00,Wunderground v.1.15,2013-01-28 18:26:00,
2013-01-28 13:31:00,19.2,15.4,30.13,SE,138,3.0,9.0,85,0.00,,,0.00,Wunderground v.1.15,2013-01-28 18:31:00,
2013-01-28 13:36:00,19.1,15.6,30.12,SE,145,4.0,9.0,86,0.00,,,0.00,Wunderground v.1.15,2013-01-28 18:36:00,
2013-01-28 13:41:00,19.2,15.7,30.12,SE,124,1.0,4.0,86,0.00,,,0.00,Wunderground v.1.15,2013-01-28 18:41:00,
2013-01-28 13:46:00,19.5,16.3,30.11,SE,136,1.0,4.0,87,0.00,,,0.00,Wunderground v.1.15,2013-01-28 18:46:00,
2013-01-28 13:51:00,19.7,16.5,30.11,SE,136,6.0,6.0,87,0.00,,,0.00,Wunderground v.1.15,2013-01-28 18:51:00,
2013-01-28 13:56:00,19.3,15.5,30.11,SE,145,9.0,13.0,85,0.00,,,0.00,Wunderground v.1.15,2013-01-28 18:56:00,
2013-01-28 14:01:00,19.0,15.2,30.12,SE,139,3.0,9.0,85,0.00,,,0.00,Wunderground v.1.15,2013-01-28 19:01:00,
2013-01-28 14:06:00,18.9,15.4,30.11,East,82,2.0,10.0,86,0.00,,,0.00,Wunderground v.1.15,2013-01-28 19:06:00,
2013-01-28 14:11:00,19.0,15.8,30.11,SE,129,6.0,8.0,87,0.00,,,0.00,Wunderground v.1.15,2013-01-28 19:11:00,
2013-01-28 14:16:00,19.2,16.0,30.11,SE,142,3.0,8.0,87,0.00,,,0.00,Wunderground v.1.15,2013-01-28 19:16:00,
2013-01-28 14:21:00,19.3,15.8,30.11,SE,132,2.0,5.0,86,0.00,,,0.00,Wunderground v.1.15,2013-01-28 19:21:00,
2013-01-28 14:26:00,19.2,16.0,30.11,SE,142,2.0,5.0,87,0.00,,,0.00,Wunderground v.1.15,2013-01-28 19:26:00,
2013-01-28 14:31:00,19.1,15.9,30.11,SSE,150,1.0,4.0,87,0.00,,,0.00,Wunderground v.1.15,2013-01-28 19:31:00,
2013-01-28 14:36:00,18.9,15.7,30.11,SSE,149,4.0,7.0,87,0.00,,,0.00,Wunderground v.1.15,2013-01-28 19:36:00,
2013-01-28 14:41:00,18.6,15.4,30.10,SE,142,6.0,15.0,87,0.00,,,0.00,Wunderground v.1.15,2013-01-28 19:41:00,
2013-01-28 14:46:00,18.5,15.3,30.10,SSE,148,4.0,15.0,87,0.00,,,0.00,Wunderground v.1.15,2013-01-28 19:46:00,
2013-01-28 14:51:00,18.3,15.1,30.10,SE,142,1.0,12.0,87,0.00,,,0.00,Wunderground v.1.15,2013-01-28 19:51:00,
2013-01-28 14:56:00,18.1,14.9,30.10,SE,140,5.0,12.0,87,0.00,,,0.00,Wunderground v.1.15,2013-01-28 19:56:00,
2013-01-28 15:01:00,17.8,14.6,30.09,SSE,149,5.0,7.0,87,0.00,,,0.00,Wunderground v.1.15,2013-01-28 20:01:00,
2013-01-28 15:06:00,17.7,14.5,30.10,SSE,162,5.0,7.0,87,0.00,,,0.00,Wunderground v.1.15,2013-01-28 20:06:00,
2013-01-28 15:11:00,17.5,14.6,30.09,East,95,7.0,7.0,88,0.00,,,0.00,Wunderground v.1.15,2013-01-28 20:11:00,
2013-01-28 15:16:00,17.4,14.5,30.10,ESE,123,3.0,7.0,88,0.00,,,0.00,Wunderground v.1.15,2013-01-28 20:16:00,
2013-01-28 15:21:00,17.2,14.3,30.10,SE,146,7.0,9.0,88,0.00,,,0.00,Wunderground v.1.15,2013-01-28 20:21:00,
2013-01-28 15:26:00,16.8,13.6,30.09,East,95,3.0,9.0,87,0.00,,,0.00,Wunderground v.1.15,2013-01-28 20:26:00,
2013-01-28 15:32:00,16.6,13.4,30.09,ESE,111,5.0,8.0,87,0.00,,,0.00,Wunderground v.1.15,2013-01-28 20:32:00,
2013-01-28 15:37:00,16.5,13.6,30.09,East,98,2.0,8.0,88,0.00,,,0.00,Wunderground v.1.15,2013-01-28 20:37:00,
2013-01-28 15:42:00,16.5,13.6,30.08,SSE,167,4.0,9.0,88,0.00,,,0.00,Wunderground v.1.15,2013-01-28 20:42:00,
2013-01-28 15:47:00,16.6,13.7,30.08,SE,138,5.0,11.0,88,0.00,,,0.00,Wunderground v.1.15,2013-01-28 20:47:00,
2013-01-28 15:52:00,16.6,13.7,30.08,SE,135,4.0,10.0,88,0.00,,,0.00,Wunderground v.1.15,2013-01-28 20:52:00,
2013-01-28 15:57:00,16.7,13.8,30.08,South,175,3.0,10.0,88,0.00,,,0.00,Wunderground v.1.15,2013-01-28 20:57:00,
2013-01-28 16:02:00,16.8,13.6,30.07,SSE,148,2.0,5.0,87,0.00,,,0.00,Wunderground v.1.15,2013-01-28 21:02:00,
2013-01-28 16:07:00,17.0,14.1,30.07,East,91,9.0,11.0,88,0.00,,,0.00,Wunderground v.1.15,2013-01-28 21:07:00,
2013-01-28 16:12:00,17.1,14.2,30.07,East,87,5.0,7.0,88,0.00,,,0.00,Wunderground v.1.15,2013-01-28 21:12:00,
2013-01-28 16:17:00,17.1,13.9,30.07,ESE,108,8.0,10.0,87,0.00,,,0.00,Wunderground v.1.15,2013-01-28 21:17:00,
2013-01-28 16:22:00,17.0,13.8,30.07,South,179,5.0,8.0,87,0.00,,,0.00,Wunderground v.1.15,2013-01-28 21:22:00,
2013-01-28 16:27:00,16.9,13.7,30.07,SE,138,6.0,11.0,87,0.00,,,0.00,Wunderground v.1.15,2013-01-28 21:27:00,
2013-01-28 16:32:00,16.9,13.4,30.07,SSE,167,4.0,10.0,86,0.00,,,0.00,Wunderground v.1.15,2013-01-28 21:32:00,
2013-01-28 16:37:00,16.8,13.1,30.06,ESE,122,7.0,10.0,85,0.00,,,0.00,Wunderground v.1.15,2013-01-28 21:37:00,
2013-01-28 16:42:00,16.8,13.6,30.07,SSE,149,3.0,6.0,87,0.00,,,0.00,Wunderground v.1.15,2013-01-28 21:42:00,
2013-01-28 16:47:00,16.8,13.3,30.06,East,81,2.0,8.0,86,0.00,,,0.00,Wunderground v.1.15,2013-01-28 21:47:00,
2013-01-28 16:52:00,16.8,13.6,30.05,SSE,159,2.0,6.0,87,0.00,,,0.00,Wunderground v.1.15,2013-01-28 21:52:00,
2013-01-28 16:57:00,16.8,13.6,30.05,SSE,149,4.0,8.0,87,0.00,,,0.00,Wunderground v.1.15,2013-01-28 21:57:00,
2013-01-28 17:02:00,16.9,13.7,30.05,SSE,150,1.0,7.0,87,0.00,,,0.00,Wunderground v.1.15,2013-01-28 22:02:00,
2013-01-28 17:07:00,16.9,13.7,30.05,South,176,2.0,8.0,87,0.00,,,0.00,Wunderground v.1.15,2013-01-28 22:07:00,
2013-01-28 17:12:00,16.8,13.6,30.04,East,100,4.0,8.0,87,0.00,,,0.00,Wunderground v.1.15,2013-01-28 22:12:00,
2013-01-28 17:17:00,16.8,13.6,30.05,SE,138,5.0,12.0,87,0.00,,,0.00,Wunderground v.1.15,2013-01-28 22:17:00,
2013-01-28 17:22:00,16.7,13.5,30.04,SSE,155,5.0,11.0,87,0.00,,,0.00,Wunderground v.1.15,2013-01-28 22:22:00,
2013-01-28 17:27:00,16.8,13.6,30.04,SE,129,0.0,11.0,87,0.00,,,0.00,Wunderground v.1.15,2013-01-28 22:27:00,
2013-01-28 17:32:00,17.1,13.9,30.04,SSE,155,0.0,4.0,87,0.00,,,0.00,Wunderground v.1.15,2013-01-28 22:32:00,
2013-01-28 17:37:00,17.3,14.1,30.05,SSE,160,3.0,4.0,87,0.00,,,0.00,Wunderground v.1.15,2013-01-28 22:37:00,
2013-01-28 17:42:00,17.6,14.4,30.05,SSE,163,1.0,5.0,87,0.00,,,0.00,Wunderground v.1.15,2013-01-28 22:42:00,
2013-01-28 17:47:00,17.8,14.6,30.05,South,177,2.0,5.0,87,0.00,,,0.00,Wunderground v.1.15,2013-01-28 22:47:00,
2013-01-28 17:52:00,17.9,14.7,30.05,SE,138,7.0,8.0,87,0.00,,,0.00,Wunderground v.1.15,2013-01-28 22:52:00,
2013-01-28 17:57:00,17.9,14.7,30.05,ESE,104,4.0,8.0,87,0.00,,,0.00,Wunderground v.1.15,2013-01-28 22:57:00,
2013-01-28 18:02:00,18.0,14.8,30.05,SSE,156,0.0,3.0,87,0.00,,,0.00,Wunderground v.1.15,2013-01-28 23:02:00,
2013-01-28 18:07:00,18.0,14.8,30.05,SE,124,1.0,3.0,87,0.00,,,0.00,Wunderground v.1.15,2013-01-28 23:07:00,
2013-01-28 18:13:00,18.2,15.2,30.05,SE,142,1.0,4.0,88,0.00,,,0.00,Wunderground v.1.15,2013-01-28 23:13:00,
2013-01-28 18:18:00,18.2,15.2,30.04,SE,124,4.0,4.0,88,0.00,,,0.00,Wunderground v.1.15,2013-01-28 23:18:00,
2013-01-28 18:23:00,18.3,15.6,30.04,SE,131,5.0,5.0,89,0.00,,,0.00,Wunderground v.1.15,2013-01-28 23:23:00,
2013-01-28 18:28:00,18.2,15.5,30.05,ESE,110,3.0,7.0,89,0.00,,,0.00,Wunderground v.1.15,2013-01-28 23:28:00,
2013-01-28 18:33:00,18.1,15.4,30.05,SSE,148,3.0,5.0,89,0.00,,,0.00,Wunderground v.1.15,2013-01-28 23:33:00,
2013-01-28 18:38:00,18.1,15.4,30.05,SE,131,2.0,6.0,89,0.00,,,0.00,Wunderground v.1.15,2013-01-28 23:38:00,
2013-01-28 18:43:00,18.1,15.7,30.04,SSE,167,1.0,6.0,90,0.00,,,0.00,Wunderground v.1.15,2013-01-28 23:43:00,
2013-01-28 18:48:00,18.1,15.7,30.03,ESE,117,5.0,7.0,90,0.00,,,0.00,Wunderground v.1.15,2013-01-28 23:48:00,
2013-01-28 18:53:00,18.1,15.9,30.03,SE,135,6.0,6.0,91,0.00,,,0.00,Wunderground v.1.15,2013-01-28 23:53:00,
2013-01-28 18:59:00,18.1,15.7,30.03,SE,142,2.0,6.0,90,0.00,,,0.00,Wunderground v.1.15,2013-01-28 23:59:00,
2013-01-28 19:04:00,18.1,15.7,30.03,SE,131,2.0,6.0,90,0.00,,,0.00,Wunderground v.1.15,2013-01-29 00:04:00,
2013-01-28 19:09:00,18.2,15.8,30.03,SSE,163,1.0,2.0,90,0.00,,,0.00,Wunderground v.1.15,2013-01-29 00:09:00,
2013-01-28 19:14:00,18.4,16.0,30.03,SSE,149,2.0,5.0,90,0.00,,,0.00,Wunderground v.1.15,2013-01-29 00:14:00,
2013-01-28 19:19:00,18.6,16.2,30.02,ESE,111,3.0,3.0,90,0.00,,,0.00,Wunderground v.1.15,2013-01-29 00:19:00,
2013-01-28 19:24:00,18.8,16.4,30.01,SSE,155,5.0,6.0,90,0.00,,,0.00,Wunderground v.1.15,2013-01-29 00:24:00,
2013-01-28 19:29:00,19.1,16.4,30.02,SSE,159,3.0,3.0,89,0.00,,,0.00,Wunderground v.1.15,2013-01-29 00:29:00,
2013-01-28 19:34:00,19.2,16.2,30.02,SSE,167,2.0,4.0,88,0.00,,,0.00,Wunderground v.1.15,2013-01-29 00:34:00,
2013-01-28 19:39:00,19.2,16.2,30.02,SE,138,2.0,5.0,88,0.00,,,0.00,Wunderground v.1.15,2013-01-29 00:39:00,
2013-01-28 19:44:00,19.2,16.0,30.02,SSE,156,3.0,7.0,87,0.00,,,0.00,Wunderground v.1.15,2013-01-29 00:44:00,
2013-01-28 19:49:00,19.3,16.3,30.02,SSE,163,1.0,3.0,88,0.00,,,0.00,Wunderground v.1.15,2013-01-29 00:49:00,
2013-01-28 19:54:00,19.3,16.3,30.01,South,184,1.0,5.0,88,0.00,,,0.00,Wunderground v.1.15,2013-01-29 00:54:00,
2013-01-28 19:59:00,19.4,16.4,30.01,SSE,158,3.0,4.0,88,0.00,,,0.00,Wunderground v.1.15,2013-01-29 00:59:00,
2013-01-28 20:04:00,19.5,16.5,30.01,SE,139,3.0,4.0,88,0.00,,,0.00,Wunderground v.1.15,2013-01-29 01:04:00,
2013-01-28 20:09:00,19.6,16.6,30.01,South,186,2.0,3.0,88,0.00,,,0.00,Wunderground v.1.15,2013-01-29 01:09:00,
2013-01-28 20:14:00,19.6,16.6,30.00,SSE,163,0.0,9.0,88,0.00,,,0.00,Wunderground v.1.15,2013-01-29 01:14:00,
2013-01-28 20:19:00,19.6,16.6,30.00,SSE,160,1.0,3.0,88,0.00,,,0.00,Wunderground v.1.15,2013-01-29 01:19:00,
2013-01-28 20:24:00,19.6,16.6,30.00,SE,140,3.0,4.0,88,0.00,,,0.00,Wunderground v.1.15,2013-01-29 01:24:00,
2013-01-28 20:29:00,19.7,16.7,30.00,SSE,156,2.0,4.0,88,0.00,,,0.00,Wunderground v.1.15,2013-01-29 01:29:00,
2013-01-28 20:34:00,19.8,16.8,30.00,SE,145,2.0,4.0,88,0.00,,,0.00,Wunderground v.1.15,2013-01-29 01:34:00,
2013-01-28 20:39:00,19.8,17.1,29.99,SSE,149,0.0,1.0,89,0.00,,,0.00,Wunderground v.1.15,2013-01-29 01:39:00,
2013-01-28 20:44:00,20.0,17.3,29.99,South,173,0.0,1.0,89,0.00,,,0.00,Wunderground v.1.15,2013-01-29 01:44:00,
2013-01-28 20:49:00,20.0,17.5,29.99,West,280,0.0,0.0,90,0.00,,,0.00,Wunderground v.1.15,2013-01-29 01:49:00,
2013-01-28 20:54:00,19.9,17.4,29.99,NW,307,1.0,2.0,90,0.00,,,0.00,Wunderground v.1.15,2013-01-29 01:54:00,
2013-01-28 20:59:00,19.7,17.2,29.99,NW,311,2.0,2.0,90,0.00,,,0.00,Wunderground v.1.15,2013-01-29 01:59:00,
2013-01-28 21:04:00,19.5,17.3,29.99,NW,307,0.0,2.0,91,0.00,,,0.00,Wunderground v.1.15,2013-01-29 02:04:00,
2013-01-28 21:09:00,19.5,17.3,29.99,NW,311,1.0,1.0,91,0.00,,,0.00,Wunderground v.1.15,2013-01-29 02:09:00,
2013-01-28 21:14:00,19.5,17.3,29.98,North,352,1.0,2.0,91,0.00,,,0.00,Wunderground v.1.15,2013-01-29 02:14:00,
2013-01-28 21:19:00,19.5,17.3,29.98,NNW,339,0.0,1.0,91,0.00,,,0.00,Wunderground v.1.15,2013-01-29 02:19:00,
2013-01-28 21:24:00,19.6,17.4,29.98,NNW,339,0.0,1.0,91,0.00,,,0.00,Wunderground v.1.15,2013-01-29 02:24:00,
2013-01-28 21:29:00,19.6,17.4,29.98,NW,315,1.0,2.0,91,0.00,,,0.00,Wunderground v.1.15,2013-01-29 02:29:00,
2013-01-28 21:34:00,19.6,17.7,29.98,NW,313,0.0,2.0,92,0.00,,,0.00,Wunderground v.1.15,2013-01-29 02:34:00,
2013-01-28 21:39:00,19.6,17.7,29.98,NW,315,0.0,0.0,92,0.00,,,0.00,Wunderground v.1.15,2013-01-29 02:39:00,
2013-01-28 21:45:00,19.6,17.7,29.98,NW,314,0.0,0.0,92,0.00,,,0.00,Wunderground v.1.15,2013-01-29 02:45:00,
2013-01-28 21:50:00,19.6,17.7,29.98,NW,313,0.0,0.0,92,0.00,,,0.00,Wunderground v.1.15,2013-01-29 02:50:00,
2013-01-28 21:55:00,19.7,17.8,29.98,NW,314,0.0,0.0,92,0.00,,,0.00,Wunderground v.1.15,2013-01-29 02:55:00,
2013-01-28 22:00:00,19.7,17.8,29.98,NW,314,0.0,0.0,92,0.00,,,0.00,Wunderground v.1.15,2013-01-29 03:00:00,
2013-01-28 22:05:00,19.7,17.8,29.97,NW,314,0.0,0.0,92,0.00,,,0.00,Wunderground v.1.15,2013-01-29 03:05:00,
2013-01-28 22:10:00,19.7,17.8,29.97,NW,314,0.0,0.0,92,0.00,,,0.00,Wunderground v.1.15,2013-01-29 03:10:00,
2013-01-28 22:15:00,19.8,17.9,29.97,NW,315,0.0,0.0,92,0.00,,,0.00,Wunderground v.1.15,2013-01-29 03:15:00,
2013-01-28 22:20:00,19.8,17.9,29.97,NW,315,0.0,0.0,92,0.00,,,0.00,Wunderground v.1.15,2013-01-29 03:20:00,
2013-01-28 22:25:00,19.8,17.9,29.97,NW,313,0.0,0.0,92,0.00,,,0.00,Wunderground v.1.15,2013-01-29 03:25:00,
2013-01-28 22:30:00,19.8,17.9,29.97,NW,314,0.0,0.0,92,0.00,,,0.00,Wunderground v.1.15,2013-01-29 03:30:00,
2013-01-28 22:35:00,19.9,18.0,29.97,NW,314,0.0,0.0,92,0.00,,,0.00,Wunderground v.1.15,2013-01-29 03:35:00,
2013-01-28 22:40:00,19.9,18.0,29.97,NW,314,0.0,0.0,92,0.00,,,0.00,Wunderground v.1.15,2013-01-29 03:40:00,
2013-01-28 22:45:00,19.9,18.0,29.97,NW,313,0.0,0.0,92,0.00,,,0.00,Wunderground v.1.15,2013-01-29 03:45:00,
2013-01-28 22:50:00,19.9,18.0,29.97,NW,314,0.0,0.0,92,0.00,,,0.00,Wunderground v.1.15,2013-01-29 03:50:00,
2013-01-28 22:55:00,19.9,18.0,29.97,NW,314,0.0,0.0,92,0.00,,,0.00,Wunderground v.1.15,2013-01-29 03:55:00,
2013-01-28 23:00:00,19.9,18.0,29.97,NW,313,0.0,0.0,92,0.00,,,0.00,Wunderground v.1.15,2013-01-29 04:00:00,
2013-01-28 23:05:00,20.0,18.1,29.97,NW,314,0.0,0.0,92,0.00,,,0.00,Wunderground v.1.15,2013-01-29 04:05:00,
2013-01-28 23:10:00,20.0,18.1,29.97,NW,313,0.0,0.0,92,0.00,,,0.00,Wunderground v.1.15,2013-01-29 04:10:00,
2013-01-28 23:15:00,20.0,18.1,29.97,NW,314,0.0,0.0,92,0.00,,,0.00,Wunderground v.1.15,2013-01-29 04:15:00,
2013-01-28 23:20:00,20.0,18.1,29.98,WNW,302,0.0,0.0,92,0.00,,,0.00,Wunderground v.1.15,2013-01-29 04:20:00,
2013-01-28 23:25:00,20.0,18.1,29.98,WNW,302,0.0,0.0,92,0.00,,,0.00,Wunderground v.1.15,2013-01-29 04:25:00,
2013-01-28 23:30:00,20.0,18.1,29.98,WNW,302,0.0,0.0,92,0.00,,,0.00,Wunderground v.1.15,2013-01-29 04:30:00,
2013-01-28 23:35:00,20.0,18.1,29.98,WNW,302,0.0,0.0,92,0.00,,,0.00,Wunderground v.1.15,2013-01-29 04:35:00,
2013-01-28 23:41:00,20.0,18.1,29.98,WNW,302,0.0,0.0,92,0.00,,,0.00,Wunderground v.1.15,2013-01-29 04:41:00,
2013-01-28 23:46:00,20.0,18.1,29.98,WNW,302,0.0,0.0,92,0.00,,,0.00,Wunderground v.1.15,2013-01-29 04:46:00,
2013-01-28 23:51:00,20.1,18.1,29.98,WNW,302,0.0,0.0,92,0.00,,,0.00,Wunderground v.1.15,2013-01-29 04:51:00,
2013-01-28 23:56:00,20.2,18.2,29.99,WNW,302,0.0,0.0,92,0.00,,,0.00,Wunderground v.1.15,2013-01-29 04:56:00,